Volver al catálogo

DELTA 1 DEB

ActivoSSO
NORAD 26861·DEBRIS·🇺🇸 United States

Lanzado Mar 5, 1978 desde Vandenberg Space Force Base

Loading…

Próximos Pases (próximas 24 horas)

TLE

EnvejeciendoSource: Space-Track

Época: Sep 10, 2026, 06:07 UTC

1 26861U 78026HV  26253.25524924  .00000113  00000-0  58184-4 0  9992
2 26861  98.8153 249.6217 0101393  98.5080 262.7608 14.29744206202843

Sigue DELTA 1 DEB en tiempo real con AllMySat

Download on the App Store